This is the latest recevied weather packets stored in our database for station/object WX6HNX-2. If no packets are shown the sender has not sent any weather packets the latest 10 day(s).
| Time | Temp. | Humidity | Pressure | Rain* | Wind** | Luminosity | Snow |
|---|---|---|---|---|---|---|---|
| 1777783800 | 15° C | 74% | 1010.7 hPa | 0 mm | - | - | - |
| 1777783559 | 15° C | 74% | 1010.6 hPa | 0 mm | - | - | - |
| 1777783319 | 15.56° C | 74% | 1010.6 hPa | 0 mm | - | - | - |
| 1777783080 | 15.56° C | 73% | 1010.6 hPa | 0 mm | - | - | - |
| 1777782600 | 15.56° C | 73% | 1010.5 hPa | 0 mm | - | - | - |
| 1777782360 | 16.11° C | 74% | 1010.4 hPa | 0 mm | - | - | - |
| 1777781737 | 15.56° C | 72% | 1010.4 hPa | 0 mm | - | - | - |
| 1777781497 | 16.11° C | 73% | 1010.3 hPa | 0 mm | - | - | - |
| 1777781257 | 16.11° C | 72% | 1010.3 hPa | 0 mm | - | - | - |
| 1777781017 | 16.11° C | 71% | 1010.3 hPa | 0 mm | - | - | - |
| 1777780777 | 16.11° C | 72% | 1010.2 hPa | 0 mm | - | - | - |
| 1777780537 | 16.67° C | 71% | 1010.2 hPa | 0 mm | - | - | - |
| 1777780297 | 16.67° C | 70% | 1010.2 hPa | 0 mm | - | - | - |
| 1777779817 | 17.22° C | 68% | 1010.1 hPa | 0 mm | - | - | - |
| 1777779577 | 17.22° C | 67% | 1010 hPa | 0 mm | - | - | - |
| 1777779337 | 17.78° C | 67% | 1010 hPa | 0 mm | - | - | - |
| 1777779097 | 17.78° C | 66% | 1010 hPa | 0 mm | - | - | - |
| 1777778857 | 17.78° C | 66% | 1010 hPa | 0 mm | - | - | - |
| 1777778617 | 18.33° C | 67% | 1009.9 hPa | 0 mm | - | - | - |
| 1777778137 | 18.89° C | 64% | 1009.8 hPa | 0 mm | - | - | - |
| 1777777897 | 18.89° C | 66% | 1009.9 hPa | 0 mm | - | - | - |
| 1777777657 | 19.44° C | 66% | 1009.9 hPa | 0 mm | - | - | - |
| 1777777417 | 19.44° C | 66% | 1009.8 hPa | 0 mm | - | - | - |
| 1777777177 | 20° C | 65% | 1009.8 hPa | 0 mm | - | - | - |
| 1777776937 | 20° C | 65% | 1009.8 hPa | 0 mm | - | - | - |
* Rain latest hour (hover to see other rain measurements)
** Current wind speed in m/s (hover to see current wind gust speed)